Location: Corona
(40.7470°N, 73.8601°W)
Time: 16:08:50
(UTC+00:00)

Resurs 01 Rocket - Pass Details

Date: 22 September 2019
Orbit: 635 x 644 km, 98.0° (Epoch: 21 October)

Event Time Altitude Azimuth Distance (km) Brightness Sun altitude
Exits shadow 23:55:34 11° 61° (ENE) 1,971 3.7 -12.6°
Maximum altitude 23:55:34 11° 61° (ENE) 1,971 3.7 -12.6°
Drops below altitude 10° 23:56:47 10° 45° (NE) 2,043 3.9 -12.8°
Sets 00:00:40 0° 11° (N) 2,961 5.1 -13.6°
